Volver al catálogo

STARLINK-33743

ActivoComunicacionesVLEO
NORAD 63440·PAYLOAD·🇺🇸 United States

Lanzado Apr 4, 2025 desde Vandenberg Space Force Base

Loading…

Próximos Pases (próximas 24 horas)

TLE

ActualizadoSource: CelesTrak SupGP

Época: Sep 15, 2026, 03:15 UTC

1 63440C 25069H   26258.13590278  .00058708  00000+0  17337-2 0  2585
2 63440  53.1586 334.8146 0001146  91.4706  72.0756 15.34375734    15

Sigue STARLINK-33743 en tiempo real con AllMySat

Download on the App Store